Location: Four Corners
(38.2757°N, 122.4608°W)
Time: 02:37:06
(UTC+00:00)

SL-16 R/B - Pass Details

Date: 08 December 2019
Orbit: 840 x 849 km, 71.0° (Epoch: 20 January)

Event Time Altitude Azimuth Distance (km) Brightness Sun altitude
Rises 04:14:17 0° 244° (WSW) 3,396 6.1 -39.5°
Reaches altitude 10° 04:17:25 10° 261° (W) 2,467 5.3 -40.1°
Enters shadow 04:21:02 19° 301° (WNW) 1,897 4.4 -40.8°
